[[{"header":{"parameterUnit":"m.s-1","parameterCategory":2,"la1":30.2992,"la2":30.254,"lo1":-89.0895,"lo2":-89.0443,"dy":0.0025,"dx":0.0025,"nx":19,"ny":19,"refTime":"2026-05-03T21:00:00:Z","depth":"0","parameterNumber":2,"parameterNumberName":"U-component_of_CURRENTS"},"data":[0,0,0,-0.1317,-0.1319,-0.1459,-0.146,-0.1656,-0.1657,0,0,0,0,0,0,0,0,0,0,0,-0.1261,-0.1261,-0.1316,-0.1319,-0.1459,-0.146,-0.1656,-0.1657,0,0,0,0,0,0,0,0,0,0,0,-0.1261,-0.1261,-0.1262,-0.1319,-0.1459,-0.146,-0.1655,-0.1551,0,0,0,0,0,0,0,0,0,0,-0.1415,-0.1359,-0.1261,-0.1262,-0.132,-0.1459,-0.146,-0.1546,-0.1558,-0.1589,0,-0.159,0,-0.1621,-0.1668,-0.1669,0,0,0,-0.1344,-0.135,-0.1377,-0.1262,-0.1321,-0.1458,-0.1403,-0.1553,-0.1566,-0.1604,-0.1593,-0.16,-0.1624,-0.167,-0.167,-0.1842,-0.1843,0,0,-0.1336,-0.1306,-0.1368,-0.1384,-0.1331,-0.1398,-0.1407,-0.1561,-0.1569,-0.1593,-0.1605,-0.1627,-0.1671,-0.1672,-0.1842,-0.1842,0,0,0,-0.1297,-0.13,-0.1325,-0.1376,-0.1396,-0.1402,-0.1412,-0.1563,-0.1567,-0.1607,-0.1629,-0.1672,-0.1674,-0.1841,-0.1842,-0.1819,0,0,0,-0.1294,-0.1276,-0.132,-0.1307,-0.1392,-0.1481,-0.141,-0.1556,-0.1575,-0.1628,-0.1672,-0.1675,-0.184,-0.1841,-0.1818,-0.1783,0,0,0,-0.126,-0.1273,-0.1278,-0.1304,-0.1353,-0.1479,-0.1494,-0.1561,-0.1587,-0.1669,-0.1676,-0.184,-0.1841,-0.1818,-0.1783,-0.1808,0,0,0,-0.1241,-0.1247,-0.1277,-0.1308,-0.1351,-0.147,-0.1494,-0.1593,-0.1664,-0.1672,-0.184,-0.1842,-0.1817,-0.1783,-0.1807,-0.1757,-0.1755,0,0,-0.124,-0.1247,-0.127,-0.13,-0.1395,-0.1453,-0.1571,-0.166,-0.1697,-0.1793,-0.1798,-0.1819,-0.1783,-0.1808,-0.1844,-0.1839,0,0,0,-0.1266,-0.1278,-0.1315,-0.1376,-0.1465,-0.1553,-0.1657,-0.1695,-0.178,-0.174,-0.1856,-0.1835,-0.185,-0.1821,-0.1818,-0.1715,-0.1849,-0.1849,-0.1848,-0.1226,-0.1288,-0.1344,-0.1433,-0.151,-0.1642,-0.1707,-0.178,-0.1821,-0.185,-0.1845,-0.1883,-0.1853,-0.1849,-0.1745,-0.1892,-0.1892,-0.1892,-0.1892,-0.1237,-0.1269,-0.1354,-0.1424,-0.1526,-0.1623,-0.1751,-0.1787,-0.1865,-0.1873,-0.1891,-0.1833,-0.1844,-0.1735,-0.1891,-0.1891,-0.1891,-0.1891,-0.1891,-0.1209,-0.1232,-0.1279,-0.1382,-0.1463,-0.1585,-0.1646,-0.1737,-0.1824,-0.1846,-0.1839,-0.1838,-0.1717,-0.1864,-0.1864,-0.1864,-0.1864,-0.1864,-0.1864,-0.1155,-0.1207,-0.1245,-0.1339,-0.1374,-0.1447,-0.1579,-0.1644,-0.1745,-0.1802,-0.1803,-0.1719,-0.1874,-0.1846,-0.1863,-0.1863,-0.1863,-0.1863,-0.1863,-0.1123,-0.1144,-0.119,-0.1222,-0.1298,-0.13,-0.1438,-0.1561,-0.1654,-0.1698,-0.1645,-0.18,-0.1801,-0.1804,-0.1776,-0.1774,-0.1774,-0.1774,-0.1774,-0.108,-0.1105,-0.1138,-0.116,-0.1191,-0.1229,-0.1252,-0.1391,-0.1513,-0.152,-0.1551,-0.1525,-0.1533,-0.1518,-0.1527,-0.1494,-0.142,-0.1419,-0.1419,-0.1054,-0.1074,-0.107,-0.1111,-0.1128,-0.1131,-0.1117,-0.1191,-0.1332,-0.1395,-0.1416,-0.1431,-0.1387,-0.1409,-0.1382,-0.1403,-0.1348,0,0]},{"header":{"parameterUnit":"m.s-1","parameterCategory":2,"la1":30.2992,"la2":30.254,"lo1":-89.0895,"lo2":-89.0443,"dy":0.0025,"dx":0.0025,"nx":19,"ny":19,"refTime":"2026-05-03T21:00:00:Z","depth":"0","parameterNumber":3,"parameterNumberName":"V-component_of_CURRENTS"},"data":[0,0,0,-0.0039,-0.0038,-0.0069,-0.0069,-0.014,-0.014,0,0,0,0,0,0,0,0,0,0,0,-0.0035,-0.0034,-0.0039,-0.0038,-0.0069,-0.0069,-0.014,-0.014,0,0,0,0,0,0,0,0,0,0,0,-0.0035,-0.0034,-0.0034,-0.0038,-0.0068,-0.0069,-0.014,-0.0116,0,0,0,0,0,0,0,0,0,0,-0.0085,-0.0113,-0.0034,-0.0034,-0.0038,-0.0068,-0.0069,-0.0115,-0.0117,-0.0126,0,-0.0114,0,-0.0113,-0.0143,-0.0143,0,0,0,-0.0068,-0.0111,-0.0065,-0.0034,-0.0038,-0.0068,-0.0063,-0.0116,-0.0119,-0.013,-0.0115,-0.0117,-0.0114,-0.0143,-0.0144,-0.0193,-0.0194,0,0,-0.0066,-0.0098,-0.0063,-0.0066,-0.0024,-0.0062,-0.0064,-0.0118,-0.0145,-0.0115,-0.0118,-0.0115,-0.0144,-0.0144,-0.0193,-0.0194,0,0,0,-0.0041,-0.0098,-0.0052,-0.0064,-0.0058,-0.0062,-0.0064,-0.0144,-0.0112,-0.0119,-0.0116,-0.0144,-0.0144,-0.0193,-0.0193,-0.0271,0,0,0,-0.0042,-0.008,-0.0051,-0.0079,-0.0056,-0.0108,-0.0089,-0.0109,-0.0114,-0.0116,-0.0144,-0.0145,-0.0193,-0.0193,-0.0268,-0.0313,0,0,0,-0.0037,-0.0082,-0.0065,-0.0079,-0.0072,-0.0106,-0.0082,-0.0111,-0.0111,-0.0143,-0.0145,-0.0193,-0.0193,-0.0266,-0.0309,-0.0354,0,0,0,-0.0097,-0.0132,-0.0066,-0.0122,-0.0071,-0.0113,-0.0082,-0.0143,-0.0178,-0.0144,-0.0193,-0.0193,-0.0265,-0.0306,-0.0351,-0.0354,-0.0369,0,0,-0.0179,-0.0144,-0.0176,-0.0116,-0.0159,-0.0112,-0.0193,-0.0217,-0.0183,-0.0182,-0.0183,-0.0269,-0.0308,-0.0353,-0.0386,-0.04,0,0,0,-0.0227,-0.0235,-0.0245,-0.0249,-0.0241,-0.0253,-0.0256,-0.0248,-0.0254,-0.0196,-0.0259,-0.0281,-0.0307,-0.0302,-0.0313,-0.001,-0.0196,-0.0196,-0.0196,-0.0389,-0.0348,-0.0394,-0.0344,-0.0367,-0.036,-0.0381,-0.0357,-0.0318,-0.032,-0.0336,-0.0413,-0.0408,-0.0416,-0.0104,-0.032,-0.032,-0.032,-0.0321,-0.049,-0.0503,-0.0463,-0.0481,-0.0453,-0.0494,-0.0481,-0.0456,-0.0464,-0.0401,-0.0422,-0.0374,-0.0433,-0.0095,-0.0325,-0.0325,-0.0324,-0.0324,-0.0323,-0.0573,-0.0569,-0.0554,-0.0553,-0.0576,-0.0562,-0.0617,-0.0584,-0.0538,-0.0562,-0.0535,-0.0533,-0.0243,-0.0563,-0.0564,-0.0564,-0.0565,-0.0565,-0.0565,-0.0657,-0.0636,-0.0642,-0.0635,-0.0644,-0.0678,-0.0697,-0.0726,-0.0697,-0.0627,-0.0627,-0.0225,-0.0487,-0.0486,-0.0571,-0.057,-0.057,-0.0569,-0.0569,-0.0742,-0.0714,-0.0729,-0.0732,-0.0763,-0.0845,-0.0854,-0.0905,-0.0895,-0.0893,-0.0323,-0.0657,-0.0634,-0.0623,-0.0625,-0.0741,-0.0741,-0.0741,-0.0741,-0.0796,-0.0786,-0.0796,-0.0818,-0.0879,-0.0924,-0.1077,-0.1039,-0.0661,-0.0341,-0.022,-0.0107,-0.0114,-0.0052,-0.0054,-0.0039,-0.0004,-0.0003,-0.0001,-0.0838,-0.0831,-0.0856,-0.086,-0.0924,-0.1032,-0.1173,-0.1034,-0.0304,0.0064,0.0206,0.0174,0.0379,0.0344,0.0473,0.0445,0.0478,0,0]}],[{"header":{"parameterUnit":"m.s-1","parameterCategory":2,"la1":30.2992,"la2":30.254,"lo1":-89.0895,"lo2":-89.0443,"dy":0.0025,"dx":0.0025,"nx":19,"ny":19,"refTime":"2026-05-03T21:00:00:Z","depth":"2","parameterNumber":2,"parameterNumberName":"U-component_of_CURRENTS"},"data":[0,0,0,-0.1159,-0.1158,-0.1153,-0.1154,-0.1202,-0.1202,0,0,0,0,0,0,0,0,0,0,0,-0.1182,-0.1182,-0.1159,-0.1158,-0.1153,-0.1154,-0.1202,-0.1202,0,0,0,0,0,0,0,0,0,0,0,-0.1182,-0.1182,-0.1182,-0.1158,-0.1153,-0.1154,-0.1202,-0.1199,0,0,0,0,0,0,0,0,0,0,-0.12,-0.1195,-0.1182,-0.1182,-0.1157,-0.1153,-0.1154,-0.1198,-0.1199,-0.1209,0,-0.1202,0,-0.118,-0.1203,-0.1204,0,0,0,-0.1188,-0.1195,-0.1191,-0.1182,-0.1157,-0.1153,-0.1164,-0.1199,-0.1199,-0.121,-0.1202,-0.1203,-0.1181,-0.1204,-0.1204,-0.1357,-0.1358,0,0,-0.1188,-0.1187,-0.119,-0.1191,-0.1147,-0.1164,-0.1163,-0.1199,-0.1198,-0.1202,-0.1203,-0.1182,-0.1204,-0.1204,-0.1355,-0.1357,0,0,0,-0.1169,-0.1187,-0.1182,-0.119,-0.1172,-0.1163,-0.1163,-0.1198,-0.1195,-0.1204,-0.1183,-0.1204,-0.1204,-0.1354,-0.1356,-0.1353,0,0,0,-0.117,-0.1173,-0.1182,-0.1183,-0.1171,-0.1173,-0.1161,-0.1194,-0.1195,-0.1182,-0.1204,-0.1204,-0.1352,-0.1355,-0.1349,-0.1363,0,0,0,-0.1184,-0.1174,-0.1171,-0.1182,-0.1163,-0.1172,-0.1173,-0.1194,-0.1181,-0.1204,-0.1205,-0.1351,-0.1354,-0.1346,-0.1359,-0.1427,0,0,0,-0.1188,-0.1186,-0.1171,-0.1167,-0.1163,-0.1188,-0.1172,-0.1196,-0.1219,-0.1204,-0.1352,-0.1356,-0.1345,-0.1356,-0.1424,-0.1371,-0.1383,0,0,-0.119,-0.1186,-0.1187,-0.1172,-0.119,-0.1191,-0.1242,-0.1259,-0.1285,-0.1345,-0.1348,-0.135,-0.1358,-0.1427,-0.1576,-0.1581,0,0,0,-0.1191,-0.1187,-0.1192,-0.1194,-0.1212,-0.1257,-0.1269,-0.1314,-0.1395,-0.1307,-0.1424,-0.1431,-0.1473,-0.1436,-0.1442,-0.1373,-0.1372,-0.1372,-0.1371,-0.1174,-0.1191,-0.1203,-0.1229,-0.1256,-0.1313,-0.1379,-0.1457,-0.1435,-0.1509,-0.1482,-0.1608,-0.1572,-0.1575,-0.1537,-0.1537,-0.1537,-0.1537,-0.1537,-0.1164,-0.116,-0.121,-0.123,-0.1296,-0.1349,-0.1474,-0.1505,-0.1628,-0.1597,-0.1636,-0.1502,-0.158,-0.1538,-0.1538,-0.1538,-0.1538,-0.1538,-0.1538,-0.112,-0.1127,-0.1155,-0.1212,-0.1283,-0.1357,-0.1451,-0.1542,-0.1645,-0.169,-0.166,-0.1659,-0.1583,-0.1692,-0.1692,-0.1692,-0.1693,-0.1693,-0.1693,-0.1058,-0.1092,-0.1124,-0.1191,-0.1224,-0.1294,-0.144,-0.1532,-0.1645,-0.1693,-0.1693,-0.1662,-0.1657,-0.1597,-0.1699,-0.1698,-0.1697,-0.1697,-0.1696,-0.097,-0.1022,-0.1057,-0.1093,-0.1172,-0.1195,-0.1346,-0.152,-0.1647,-0.1713,-0.1719,-0.1716,-0.1721,-0.1716,-0.1661,-0.1774,-0.1774,-0.1774,-0.1774,-0.0916,-0.0946,-0.1,-0.1033,-0.1078,-0.1138,-0.1236,-0.1361,-0.1532,-0.1525,-0.1534,-0.1446,-0.145,-0.1434,-0.1435,-0.1372,-0.141,-0.1409,-0.1408,-0.0859,-0.0901,-0.091,-0.0981,-0.1019,-0.1055,-0.1134,-0.1157,-0.1166,-0.1386,-0.1389,-0.1766,-0.166,-0.1657,-0.1651,-0.1646,-0.1553,0,0]},{"header":{"parameterUnit":"m.s-1","parameterCategory":2,"la1":30.2992,"la2":30.254,"lo1":-89.0895,"lo2":-89.0443,"dy":0.0025,"dx":0.0025,"nx":19,"ny":19,"refTime":"2026-05-03T21:00:00:Z","depth":"2","parameterNumber":3,"parameterNumberName":"V-component_of_CURRENTS"},"data":[0,0,0,0.0124,0.0128,0.027,0.027,0.0336,0.0337,0,0,0,0,0,0,0,0,0,0,0,0.0036,0.0037,0.0124,0.0129,0.027,0.027,0.0336,0.0337,0,0,0,0,0,0,0,0,0,0,0,0.0036,0.0037,0.0038,0.013,0.027,0.027,0.0336,0.0249,0,0,0,0,0,0,0,0,0,0,0.0122,0.0045,0.0037,0.0038,0.0131,0.027,0.027,0.0246,0.0254,0.025,0,0.0274,0,0.0339,0.0342,0.0342,0,0,0,0.0093,0.0038,0.0116,0.0038,0.0133,0.027,0.0196,0.0251,0.0261,0.0261,0.0276,0.0281,0.034,0.0342,0.0342,0.0331,0.033,0,0,0.0085,0.0023,0.0109,0.0122,0.0171,0.0192,0.0201,0.0258,0.0242,0.0276,0.0284,0.0341,0.0343,0.0343,0.0332,0.0331,0,0,0,0.0087,0.0016,0.0093,0.0117,0.017,0.0197,0.0207,0.0238,0.0276,0.0285,0.0342,0.0343,0.0344,0.0332,0.0331,0.0207,0,0,0,0.0081,0.0022,0.0089,0.0048,0.017,0.0219,0.0186,0.027,0.0281,0.0342,0.0343,0.0345,0.0333,0.0332,0.0212,0.0153,0,0,0,0.0029,0.0017,0.0042,0.0045,0.0133,0.0221,0.0258,0.0273,0.0317,0.0342,0.0345,0.0334,0.0332,0.0217,0.0161,0.0076,0,0,0,-0.0052,-0.003,0.0039,0.0063,0.0132,0.0184,0.0258,0.0267,0.0274,0.0343,0.0333,0.0331,0.0218,0.0166,0.0081,0.0151,0.0132,0,0,-0.0064,-0.0034,-0.0019,0.005,0.0074,0.0162,0.0156,0.0196,0.0251,0.0302,0.0303,0.0211,0.0161,0.0077,0.0056,0.0039,0,0,0,-0.0048,-0.0039,-0.0023,0.0009,0.0066,0.0075,0.0144,0.0164,0.0177,0.0264,0.0212,0.0185,0.0135,0.0189,0.0175,0.0323,0.0324,0.0324,0.0324,-0.0153,-0.0104,-0.011,-0.0056,-0.0045,0.0005,-0.0004,0.0037,0.0111,0.0083,0.0084,-0.0063,-0.0007,-0.0016,0.009,0.0089,0.0089,0.0088,0.0088,-0.0181,-0.0173,-0.0174,-0.0163,-0.0161,-0.0173,-0.0134,-0.0107,-0.012,-0.0029,-0.0071,0.0058,-0.0038,0.0078,0.008,0.0082,0.0083,0.0083,0.0084,-0.0227,-0.022,-0.023,-0.0257,-0.0311,-0.0285,-0.0341,-0.0292,-0.0252,-0.0291,-0.0212,-0.0208,-0.0147,-0.0309,-0.031,-0.031,-0.0311,-0.0311,-0.0312,-0.0266,-0.0272,-0.0327,-0.0354,-0.0406,-0.0457,-0.0466,-0.0488,-0.0435,-0.0348,-0.0347,-0.0197,-0.0184,-0.0169,-0.0322,-0.032,-0.0319,-0.0318,-0.0317,-0.0271,-0.0331,-0.039,-0.0451,-0.0548,-0.0623,-0.0624,-0.0633,-0.0635,-0.0616,-0.0377,-0.0372,-0.0326,-0.0312,-0.0299,-0.0477,-0.0477,-0.0477,-0.0477,-0.0326,-0.0339,-0.0473,-0.0559,-0.0647,-0.0695,-0.0774,-0.0634,-0.0492,-0.0273,-0.0281,-0.0152,-0.0151,-0.0086,-0.0077,-0.0055,-0.017,-0.0169,-0.0169,-0.0367,-0.0409,-0.0508,-0.0596,-0.0691,-0.0776,-0.081,-0.0553,-0.0127,-0.0152,-0.0175,-0.0467,-0.0293,-0.0285,-0.0192,-0.0176,-0.0143,0,0]}],[{"header":{"parameterUnit":"m.s-1","parameterCategory":2,"la1":30.2992,"la2":30.254,"lo1":-89.0895,"lo2":-89.0443,"dy":0.0025,"dx":0.0025,"nx":19,"ny":19,"refTime":"2026-05-03T21:00:00:Z","depth":"4","parameterNumber":2,"parameterNumberName":"U-component_of_CURRENTS"},"data":[0,0,0,-0.081,-0.0812,-0.0865,-0.0865,-0.0796,-0.0795,0,0,0,0,0,0,0,0,0,0,0,-0.0787,-0.0788,-0.081,-0.0812,-0.0865,-0.0865,-0.0796,-0.0795,0,0,0,0,0,0,0,0,0,0,0,-0.0787,-0.0788,-0.0789,-0.0813,-0.0865,-0.0864,-0.0796,-0.0783,0,0,0,0,0,0,0,0,0,0,-0.0746,-0.0735,-0.0788,-0.0789,-0.0813,-0.0865,-0.0864,-0.0783,-0.0783,-0.0743,0,-0.0776,0,-0.0797,-0.079,-0.079,0,0,0,-0.0782,-0.0735,-0.0777,-0.0789,-0.0814,-0.0865,-0.0832,-0.0784,-0.0784,-0.0742,-0.0775,-0.0774,-0.0796,-0.079,-0.0789,-0.0754,-0.0755,0,0,-0.0779,-0.076,-0.0777,-0.0778,-0.0857,-0.0831,-0.0834,-0.0786,-0.0778,-0.0775,-0.0773,-0.0795,-0.0789,-0.0789,-0.0754,-0.0754,0,0,0,-0.0791,-0.0758,-0.0802,-0.0779,-0.0808,-0.0833,-0.0837,-0.078,-0.0804,-0.0772,-0.0794,-0.0789,-0.0788,-0.0754,-0.0754,-0.0851,0,0,0,-0.0788,-0.0768,-0.0801,-0.0785,-0.081,-0.0809,-0.0832,-0.0807,-0.0803,-0.0794,-0.0789,-0.0787,-0.0754,-0.0754,-0.0848,-0.084,0,0,0,-0.0779,-0.0765,-0.0788,-0.0785,-0.0826,-0.0811,-0.083,-0.0807,-0.0817,-0.079,-0.0787,-0.0754,-0.0754,-0.0845,-0.0837,-0.0891,0,0,0,-0.0733,-0.0762,-0.0788,-0.0812,-0.0826,-0.0847,-0.0831,-0.0824,-0.0803,-0.0788,-0.0754,-0.0754,-0.0845,-0.0835,-0.0889,-0.0695,0,0,0,-0.0742,-0.0762,-0.0775,-0.0801,-0.0826,-0.0836,-0.0835,-0.0807,-0.0794,-0.0754,-0.0754,-0.0849,-0.0837,-0.0891,-0.0719,0,0,0,0,-0.0758,-0.0773,-0.0783,-0.0806,-0.0828,-0.0835,-0.0822,-0.0837,-0.0848,-0.0793,-0.083,-0.0817,-0.085,-0.0727,-0.0756,-0.0756,-0.0756,-0.0756,-0.0756,-0.0725,-0.0751,-0.0762,-0.0795,-0.0807,-0.0825,-0.085,-0.0863,-0.085,-0.0888,-0.0885,-0.0966,-0.084,-0.0896,-0.0896,-0.0897,-0.0897,-0.0897,-0.0897,-0.0714,-0.0718,-0.0746,-0.0766,-0.0789,-0.0793,-0.0867,-0.0902,-0.0972,-0.0945,-0.0975,-0.0821,-0.0907,-0.0905,-0.0903,-0.0902,-0.0902,-0.0901,-0.0901,-0.0677,-0.0683,-0.0702,-0.0718,-0.0745,-0.0785,-0.0866,-0.0955,-0.1022,-0.1071,-0.094,-0.1015,-0.1021,-0.1105,-0.1105,-0.1105,-0.1105,-0.1106,-0.1106,-0.0622,-0.0647,-0.0636,-0.0667,-0.0671,-0.073,-0.0878,-0.0936,-0.1024,-0.0981,-0.1089,-0.1035,-0.1028,-0.103,-0.1109,-0.1109,-0.1108,-0.1108,-0.1108,-0.0573,-0.0577,-0.0562,-0.0557,-0.0569,-0.0613,-0.0778,-0.087,-0.0923,-0.0902,-0.0944,-0.0951,-0.0889,-0.0886,-0.0881,-0.0919,-0.0917,-0.0915,0,-0.0519,-0.0526,-0.0489,-0.0465,-0.0451,-0.0543,-0.0577,-0.0667,-0.0773,-0.0753,-0.0903,-0.095,-0.0954,-0.088,-0.0874,-0.0864,0,0,0,-0.0465,-0.0468,-0.0421,-0.0413,-0.0394,-0.0456,-0.0586,-0.0611,-0.0742,-0.0735,-0.0859,-0.0874,-0.0953,-0.112,-0.1041,-0.1033,-0.1032,0,0]},{"header":{"parameterUnit":"m.s-1","parameterCategory":2,"la1":30.2992,"la2":30.254,"lo1":-89.0895,"lo2":-89.0443,"dy":0.0025,"dx":0.0025,"nx":19,"ny":19,"refTime":"2026-05-03T21:00:00:Z","depth":"4","parameterNumber":3,"parameterNumberName":"V-component_of_CURRENTS"},"data":[0,0,0,0.0247,0.0249,0.0399,0.04,0.0529,0.0529,0,0,0,0,0,0,0,0,0,0,0,0.0187,0.0187,0.0247,0.025,0.0399,0.04,0.0529,0.0529,0,0,0,0,0,0,0,0,0,0,0,0.0187,0.0187,0.0187,0.025,0.0399,0.04,0.0528,0.0437,0,0,0,0,0,0,0,0,0,0,0.0302,0.0273,0.0187,0.0187,0.0251,0.0398,0.04,0.0434,0.0443,0.0435,0,0.0438,0,0.0478,0.0534,0.0535,0,0,0,0.0275,0.0266,0.0275,0.0187,0.0252,0.0398,0.0339,0.044,0.045,0.0447,0.044,0.0446,0.048,0.0535,0.0535,0.0531,0.053,0,0,0.0266,0.025,0.0268,0.0281,0.0262,0.0334,0.0343,0.0447,0.0461,0.0441,0.045,0.0482,0.0535,0.0536,0.0531,0.0531,0,0,0,0.0226,0.0244,0.0254,0.0274,0.0302,0.0337,0.0348,0.0458,0.0451,0.0451,0.0483,0.0536,0.0537,0.0532,0.0531,0.0537,0,0,0,0.0222,0.0219,0.0249,0.0247,0.0299,0.0397,0.0357,0.0445,0.0458,0.0483,0.0536,0.0537,0.0533,0.0532,0.0538,0.0495,0,0,0,0.0185,0.0217,0.0217,0.0245,0.0296,0.0396,0.04,0.0449,0.0476,0.0535,0.0538,0.0533,0.0532,0.0539,0.0498,0.0519,0,0,0,0.0186,0.0208,0.0217,0.026,0.0294,0.0352,0.04,0.0476,0.0525,0.0536,0.0533,0.0531,0.054,0.05,0.052,0.0471,0,0,0,0.0215,0.0211,0.0237,0.0248,0.0282,0.0335,0.037,0.0459,0.0493,0.05,0.0501,0.0538,0.0499,0.0519,0.0387,0,0,0,0,0.0248,0.025,0.0269,0.029,0.0327,0.0331,0.0413,0.0441,0.0491,0.0511,0.0507,0.048,0.0495,0.0467,0.0524,0.0524,0.0525,0.0525,0.0525,0.025,0.0261,0.0277,0.0278,0.0298,0.0335,0.0366,0.0399,0.0455,0.0468,0.0465,0.0446,0.0414,0.0464,0.0464,0.0464,0.0464,0.0464,0.0464,0.0255,0.0254,0.0242,0.026,0.0237,0.0248,0.0294,0.0345,0.0397,0.0424,0.0441,0.0447,0.0464,0.0464,0.0464,0.0464,0.0464,0.0464,0.0464,0.024,0.0234,0.0241,0.0224,0.019,0.0198,0.0211,0.028,0.0366,0.039,0.0391,0.0437,0.0463,0.0426,0.0426,0.0426,0.0426,0.0426,0.0426,0.022,0.0219,0.0211,0.0188,0.0164,0.0142,0.0186,0.0234,0.0314,0.0344,0.039,0.0433,0.0434,0.0459,0.0424,0.0425,0.0425,0.0425,0.0425,0.021,0.0208,0.0198,0.018,0.0123,0.0091,0.013,0.0199,0.0251,0.0283,0.034,0.0345,0.0336,0.0339,0.0361,0.0296,0.0296,0.0295,0,0.0193,0.0194,0.0187,0.016,0.0102,0.0066,0.0086,0.0131,0.0222,0.0217,0.0262,0.0324,0.0328,0.0317,0.0319,0.0341,0,0,0,0.0176,0.0178,0.0175,0.0161,0.0095,0.0067,0.0085,0.0121,0.0185,0.0222,0.0276,0.0281,0.0347,0.042,0.0417,0.0419,0.0458,0,0]}]]